Hourly Data Report for October 15, 2014

All times are specified in Local Standard Time (LST). Add 1 hour to adjust for Daylight Saving Time where and when it is observed.

KAMLOOPS A
BRITISH COLUMBIA

50°42'09.000" N
120°26'55.000" W
345.30 m
1163781
71887
YKA

Download Data

Hourly Data (October 2014)
Hourly Data Report for October 15, 2014
Temp Definition
°C
Dew Point Temp Definition
°C
Rel Hum Definition
%
Wind Dir Definition
10's deg

Wind Spd Definition
km/h
Visibility Definition
km
Stn Press Definition
kPa
Hmdx Definition


Wind Chill Definition


Weather Definition


TIME
00:00 Legend Double Dagger 8.6 3.3 69 11 8 64.4 96.26     LegendNANA
01:00 Legend Double Dagger 9.8 2.9 62 13 7 64.4 96.21     Mostly Cloudy
02:00 Legend Double Dagger 6.9 2.8 75 29 8 64.4 96.21     LegendNANA
03:00 Legend Double Dagger 5.3 1.8 78 25 9 64.4 96.18     LegendNANA
04:00 Legend Double Dagger 5.8 2.5 79 28 7 64.4 96.15     Mostly Cloudy
05:00 Legend Double Dagger 6.3 2.6 77 31 4 64.4 96.15     LegendNANA
06:00 Legend Double Dagger 6.8 2.9 76 33 3 64.4 96.17     Rain
07:00 Legend Double Dagger 6.5 4.3 86 27 6 64.4 96.18     Mostly Cloudy
08:00 Legend Double Dagger 7.3 4.6 83 25 4 64.4 96.20     LegendNANA
09:00 Legend Double Dagger 8.2 4.6 78 36 3 64.4 96.18     LegendNANA
10:00 Legend Double Dagger 8.4 4.8 78 28 11 64.4 96.23     Cloudy
11:00 Legend Double Dagger 8.6 5.2 79 27 4 64.4 96.27     Rain
12:00 Legend Double Dagger 9.1 5.3 77 29 13 64.4 96.29     LegendNANA
13:00 Legend Double Dagger 10.0 5.2 72 0 1 64.4 96.29     Mostly Cloudy
14:00 Legend Double Dagger 10.7 5.7 71 9 8 64.4 96.33     LegendNANA
15:00 Legend Double Dagger 11.4 6.2 70 9 9 64.4 96.38     LegendNANA
16:00 Legend Double Dagger 11.5 6.1 69 9 13 64.4 96.44     Mostly Cloudy
17:00 Legend Double Dagger 10.9 6.3 73 11 11 64.4 96.50     LegendNANA
18:00 Legend Double Dagger 9.9 6.5 79 3 4 64.4 96.61     LegendNANA
19:00 Legend Double Dagger 8.6 5.9 83 5 3 64.4 96.70     Mostly Cloudy
20:00 Legend Double Dagger 7.9 5.4 84 31 3 64.4 96.80     LegendNANA
21:00 Legend Double Dagger 7.9 5.4 84 29 4 64.4 96.88     LegendNANA
22:00 Legend Double Dagger 6.1 4.9 92 24 6 64.4 96.97     Mainly Clear
23:00 Legend Double Dagger 6.2 5.0 92 8 3 64.4 97.07     LegendNANA

Notes on Data Quality.

Legend

  • E = Estimated
  • M = Missing
  • NA = Not Available
  • ‡ = Partner data that is not subject to review by the National Climate Archives
Date modified: